EW0778 Weather Reports


time (UTC)temp
C
wind
direction
speed
KPH
gust
KPH
rain 1hr
cm
rain 24hr
cm
rain mn
cm
humidity
%
barometer
mb
20260505041540 3 2 3.2 9.7 0.00 0.41 0.00 86 1006.9
20260505040640 3 1 3.2 8.0 0.00 0.41 0.00 86 1007.0
20260505034841 3 2 3.2 11.3 0.00 0.41 0.00 85 1006.9
20260505033940 3 1 1.6 9.7 0.00 0.41 0.00 85 1006.8
20260505033041 3 1 3.2 8.0 0.00 0.41 0.00 85 1006.8
20260505032141 3 1 3.2 8.0 0.00 0.41 0.00 85 1006.8
20260505031240 3 1 3.2 8.0 0.00 0.41 0.00 84 1006.7
20260505030341 4 2 3.2 9.7 0.00 0.41 0.00 84 1006.6
20260505025441 4 2 3.2 11.3 0.00 0.41 0.00 84 1006.3
20260505023641 4 2 4.8 11.3 0.00 0.41 0.00 85 1006.1
20260505022741 4 1 4.8 14.5 0.00 0.41 0.41 85 1005.9
20260505021841 4 2 6.4 14.5 0.00 0.41 0.41 85 1006.0
20260505020940 4 1 6.4 17.7 0.00 0.41 0.41 84 1005.8
20260505020040 5 1 6.4 12.9 0.00 0.41 0.41 84 1005.7
20260505015141 5 1 8.0 17.7 0.00 0.41 0.41 83 1005.3
20260505014241 5 1 8.0 25.7 0.00 0.41 0.41 83 1005.1
20260505013341 5 1 8.0 30.6 0.00 0.41 0.41 83 1005.0
20260505012441 5 359 8.0 30.6 0.00 0.41 0.41 83 1004.9
20260505011541 5 359 9.7 33.8 0.00 0.41 0.41 83 1004.8
20260505010641 5 359 8.0 27.4 0.00 0.41 0.41 84 1004.5
20260505005741 5 359 8.0 27.4 0.00 0.41 0.41 84 1004.5
20260505004841 5 1 9.7 27.4 0.00 0.41 0.41 85 1004.4
20260505003041 5 359 8.0 22.5 0.00 0.41 0.41 85 1004.1
20260505002141 5 358 6.4 19.3 0.00 0.41 0.41 85 1003.9
20260505001241 5 359 8.0 27.4 0.00 0.41 0.41 85 1003.7
20260505000343 5 359 8.0 27.4 0.00 0.41 0.41 86 1003.6
20260504235442 5 359 8.0 17.7 0.00 0.41 0.41 86 1003.2
20260504234541 5 359 8.0 20.9 0.00 0.41 0.41 86 1003.0
20260504233641 5 359 8.0 30.6 0.00 0.41 0.41 86 1002.6
20260504231841 5 4 11.3 24.1 0.00 0.41 0.41 86 1002.0
20260504230942 5 1 11.3 24.1 0.00 0.41 0.41 86 1001.7
20260504230041 5 1 12.9 33.8 0.00 0.41 0.41 86 1001.8
20260504225141 5 1 12.9 37.0 0.00 0.41 0.41 86 1001.3
20260504224241 5 1 11.3 38.6 0.00 0.41 0.41 86 1001.2
20260504223341 5 1 12.9 32.2 0.00 0.41 0.41 86 1001.2
20260504222441 5 3 12.9 41.8 0.00 0.41 0.41 86 1000.9
20260504220641 4 1 12.9 35.4 0.00 0.41 0.41 87 1000.3
20260504213941 4 3 12.9 37.0 0.00 0.41 0.41 86 999.6
20260504213041 4 1 11.3 25.7 0.00 0.41 0.41 87 999.6
20260504212141 4 4 11.3 24.1 0.00 0.41 0.41 86 999.4
20260504211241 4 1 11.3 29.0 0.00 0.41 0.41 87 999.2
20260504210341 5 359 9.7 19.3 0.00 0.41 0.41 86 999.1
20260504205442 4 359 8.0 24.1 0.00 0.41 0.41 86 998.9
20260504204541 5 359 11.3 24.1 0.00 0.41 0.41 86 998.9
20260504203641 5 1 11.3 29.0 0.00 0.41 0.41 86 998.8
20260504202741 5 1 9.7 35.4 0.00 0.41 0.41 86 998.5
20260504201841 5 359 11.3 24.1 0.00 0.41 0.41 85 998.3
20260504200941 5 1 9.7 25.7 0.00 0.41 0.41 85 998.2
20260504200041 5 2 8.0 20.9 0.00 0.41 0.41 85 997.9
20260504195141 5 13 11.3 22.5 0.00 0.41 0.41 85 998.0
20260504194241 5 359 11.3 25.7 0.00 0.41 0.41 85 997.8
20260504193341 5 1 11.3 24.1 0.00 0.41 0.41 85 997.7
20260504192441 5 1 11.3 25.7 0.00 0.41 0.41 85 997.5
20260504191541 5 1 11.3 33.8 0.00 0.41 0.41 85 997.2
20260504190641 5 1 9.7 33.8 0.00 0.41 0.41 86 997.1
20260504185741 5 1 9.7 25.7 0.00 0.41 0.41 86 997.0
20260504183941 5 1 11.3 24.1 0.00 0.41 0.41 85 996.6
20260504183041 5 1 9.7 20.9 0.00 0.41 0.41 84 996.4
20260504181241 5 2 9.7 29.0 0.00 0.41 0.41 83 996.3
20260504180341 5 359 11.3 25.7 0.00 0.41 0.41 83 996.1
20260504175441 5 1 12.9 32.2 0.00 0.41 0.41 83 996.0
20260504173641 5 359 11.3 24.1 0.00 0.41 0.41 82 996.0
20260504171841 6 1 9.7 24.1 0.00 0.41 0.41 80 996.0
20260504170941 6 359 9.7 22.5 0.00 0.41 0.41 80 995.8
20260504150341 6 27 11.3 20.9 0.00 0.41 0.41 83 996.5
20260504140941 7 96 8.0 17.7 0.00 0.41 0.41 83 997.0